Location: Chervonnoye
(48.6000°N, 34.4000°E)
Time: 05:17:11
(UTC+00:00)

BEESAT 3 - Pass Details

Date: 13 December 2021
Orbit: 472 x 512 km, 64.9° (Epoch: 22 January)

Event Time Altitude Azimuth Distance (km) Brightness Sun altitude
Rises 16:47:26 0° 273° (W) 2,579 ? -28.7°
Reaches altitude 10° 16:50:27 10° 299° (WNW) 1,710 ? -29.2°
Enters shadow 16:51:55 14° 322° (NW) 1,497 ? -29.4°
